Wetterdaten: aktuell Donnerstag, 13.12.2018 00:50
Datum Zeit Temperatur Bodentemp. Luftfeuchte Luftdruck Niederschlag Windgeschw. Windrichtung Windrichtung Sonnenschein Nieder.dauer Evapotrans. Solarstrahl. Taupunkt Windchill Windböen
13.12.2018 00:50 2,7 °C 2,2 °C 98 % 1027,7 hPa 0,0 l/m² 0,0 km/h (0 Bft) N 0 ° 0 min 0 min 0 mm 0 W/m² 2,4 °C 2,7 °C 0,0 km/h (0 Bft)
12.12.2018 23:50 2,8 °C 2,2 °C 97 % 1027,8 hPa 0,0 l/m² 0,0 km/h (0 Bft) O-NO 67 ° 0 min 0 min 0 mm 0 W/m² 2,4 °C 2,8 °C 1,8 km/h (1 Bft)
12.12.2018 22:50 2,7 °C 2,2 °C 96 % 1027,6 hPa 0,0 l/m² 0,0 km/h (0 Bft) O-NO 67 ° 0 min 2 min 0 mm 0 W/m² 2,1 °C 2,7 °C 3,6 km/h (1 Bft)
12.12.2018 21:50 2,7 °C 2,2 °C 96 % 1027,7 hPa 0,0 l/m² 0,0 km/h (0 Bft) O-NO 67 ° 0 min 0 min 0 mm 0 W/m² 2,1 °C 2,7 °C 3,6 km/h (1 Bft)
12.12.2018 20:50 2,9 °C 2,8 °C 97 % 1027,6 hPa 0,0 l/m² 3,6 km/h (1 Bft) O-NO 67 ° 0 min 0 min 0 mm 0 W/m² 2,5 °C 2,9 °C 9,0 km/h (2 Bft)
12.12.2018 19:50 1,4 °C 1,7 °C 93 % 1027,5 hPa 0,0 l/m² 0,0 km/h (0 Bft) N 0 ° 0 min 0 min 0 mm 0 W/m² 0,4 °C 1,4 °C 0,0 km/h (0 Bft)
12.12.2018 18:50 1,5 °C 0,6 °C 91 % 1027,5 hPa 0,0 l/m² 0,0 km/h (0 Bft) N 0 ° 0 min 0 min 0 mm 0 W/m² 0,2 °C 1,5 °C 0,0 km/h (0 Bft)
12.12.2018 17:50 1,7 °C 1,1 °C 87 % 1027,6 hPa 0,0 l/m² 0,0 km/h (0 Bft) N 0 ° 0 min 0 min 0 mm 0 W/m² -0,2 °C 1,7 °C 0,0 km/h (0 Bft)
12.12.2018 16:50 3,2 °C 1,1 °C 83 % 1027,2 hPa 0,0 l/m² 0,0 km/h (0 Bft) N 0 ° 0 min 0 min 0 mm 0 W/m² 0,6 °C 3,2 °C 0,0 km/h (0 Bft)
12.12.2018 15:50 4,2 °C 3,9 °C 87 % 1027,1 hPa 0,0 l/m² 0,0 km/h (0 Bft) O 90 ° 0 min 0 min 0 mm 5 W/m² 2,2 °C 4,2 °C 3,6 km/h (1 Bft)
12.12.2018 14:50 4,2 °C 3,9 °C 89 % 1027,1 hPa 0,0 l/m² 0,0 km/h (0 Bft) O-NO 67 ° 1 min 0 min 0 mm 49 W/m² 2,6 °C 4,2 °C 3,6 km/h (1 Bft)
12.12.2018 13:50 4,2 °C 3,9 °C 89 % 1027,1 hPa 0,0 l/m² 0,0 km/h (0 Bft) N 0 ° 0 min 0 min 0 mm 60 W/m² 2,6 °C 4,2 °C 0,0 km/h (0 Bft)
12.12.2018 12:50 4,5 °C 4,4 °C 87 % 1027,1 hPa 0,0 l/m² 0,0 km/h (0 Bft) O-NO 67 ° 0 min 0 min 0 mm 90 W/m² 2,5 °C 4,5 °C 3,6 km/h (1 Bft)
12.12.2018 11:50 4,6 °C 4,4 °C 91 % 1027,1 hPa 0,0 l/m² 0,0 km/h (0 Bft) O-SO 112 ° 0 min 0 min 0 mm 62 W/m² 3,3 °C 4,6 °C 1,8 km/h (1 Bft)
12.12.2018 10:50 4,3 °C 4,4 °C 93 % 1026,9 hPa 0,0 l/m² 0,0 km/h (0 Bft) N 0 ° 0 min 0 min 0 mm 35 W/m² 3,3 °C 4,3 °C 0,0 km/h (0 Bft)
12.12.2018 09:50 4,1 °C 3,9 °C 93 % 1026,5 hPa 0,0 l/m² 0,0 km/h (0 Bft) N 0 ° 0 min 0 min 0 mm 30 W/m² 3,1 °C 4,1 °C 0,0 km/h (0 Bft)
12.12.2018 08:50 3,8 °C 3,3 °C 91 % 1026,1 hPa 0,0 l/m² 0,0 km/h (0 Bft) N 0 ° 0 min 0 min 0 mm 7 W/m² 2,5 °C 3,8 °C 0,0 km/h (0 Bft)
12.12.2018 07:50 3,7 °C 2,8 °C 91 % 1025,6 hPa 0,0 l/m² 0,0 km/h (0 Bft) N 0 ° 0 min 0 min 0 mm 0 W/m² 2,4 °C 3,7 °C 0,0 km/h (0 Bft)
12.12.2018 06:50 3,6 °C 2,8 °C 92 % 1025,2 hPa 0,0 l/m² 0,0 km/h (0 Bft) N 0 ° 0 min 0 min 0 mm 0 W/m² 2,4 °C 3,6 °C 0,0 km/h (0 Bft)
12.12.2018 05:50 3,4 °C 2,8 °C 94 % 1024,8 hPa 0,0 l/m² 0,0 km/h (0 Bft) N 0 ° 0 min 0 min 0 mm 0 W/m² 2,5 °C 3,4 °C 0,0 km/h (0 Bft)
12.12.2018 04:50 3,3 °C 2,8 °C 95 % 1024,7 hPa 0,0 l/m² 0,0 km/h (0 Bft) N 0 ° 0 min 0 min 0 mm 0 W/m² 2,6 °C 3,3 °C 0,0 km/h (0 Bft)
12.12.2018 03:50 3,4 °C 2,8 °C 96 % 1024,4 hPa 0,0 l/m² 0,0 km/h (0 Bft) N 0 ° 0 min 0 min 0 mm 0 W/m² 2,8 °C 3,4 °C 0,0 km/h (0 Bft)
12.12.2018 02:50 3,4 °C 2,8 °C 97 % 1024,0 hPa 0,0 l/m² 0,0 km/h (0 Bft) N 0 ° 0 min 0 min 0 mm 0 W/m² 3,0 °C 3,4 °C 0,0 km/h (0 Bft)
12.12.2018 01:50 3,6 °C 3,3 °C 98 % 1023,7 hPa 0,0 l/m² 0,0 km/h (0 Bft) N 0 ° 0 min 0 min 0 mm 0 W/m² 3,3 °C 3,6 °C 0,0 km/h (0 Bft)
12.12.2018 01:00 3,7 °C 3,3 °C 98 % 1023,4 hPa 0,0 l/m² 0,0 km/h (0 Bft) N 0 ° 0 min 0 min 0 mm 0 W/m² 3,4 °C 3,7 °C 0,0 km/h (0 Bft)
_ Min-Zeit 19:17 17:19 16:39 01:00 - 01:00 - - - - - - 17:55 19:17 01:00
Minimum _ 1,3 °C 0,0 °C 83 % 1023,4 hPa - 0,0 km/h (0 Bft) - - - - - - -0,3 °C 1,3 °C 0,0 km/h (0 Bft)
_ Max-Zeit 11:34 10:34 01:00 00:00 01:00 20:46 - - 14:47 22:32 11:00 12:52 11:15 11:34 21:44
Maximum _ 4,6 °C 4,4 °C 98 % 1027,9 hPa 0,0 l/m² 7,2 km/h
O-NO (2 Bft)
- - 1 min 1 min 0 mm 102 W/m² 3,5 °C 4,6 °C 17,9 km/h
NO (3 Bft)
Durchschnitt _ 3,4 °C 2,8 °C 93 % 1026,3 hPa #0,0 l/m² 0,3 km/h (0 Bft) O-NO - #0 min. #0 min. #0,000 mm 0 W/m² 2,3 °C 3,4 °C 1,3 km/h (1 Bft)